Simultaneous Nadir Overpasses (SNOs) Predictions

Prediction of SNOs between GOES-14 and AQUA Satellite Orbit:

Table of predicted SNOs for the next 14.0 days since TLE Epoch: 11/16/2019
Index Date Time (GOES-14) GOES-14 Lat,Lon AQUA Lat,Lon Distance(km) Time Diff (sec)
1 11/17/2019 08:20:41 0.10,-104.24 -0.41,-101.72 285.30 80
2 11/17/2019 20:42:05 -0.07,-104.07 -0.67,-106.91 323.30 80
3 11/19/2019 20:32:33 -0.07,-104.07 -0.07,-103.95 12.81 80
4 11/21/2019 20:20:22 -0.07,-104.07 0.59,-101.00 348.82 80
5 11/22/2019 08:41:39 0.05,-104.25 0.45,-106.17 218.46 80
6 11/24/2019 08:26:47 0.06,-104.24 -0.15,-103.21 117.57 80
7 11/24/2019 20:48:09 -0.04,-104.04 -0.97,-108.39 494.49 80
8 11/26/2019 08:14:35 0.07,-104.24 -0.76,-100.25 453.69 80
9 11/26/2019 20:35:57 -0.05,-104.05 -0.36,-105.43 157.89 80
10 11/28/2019 20:26:26 -0.05,-104.04 0.26,-102.47 178.55 80
11 11/29/2019 08:47:43 0.03,-104.26 0.73,-107.65 385.32 80




NCC Satellite Simultaneous Nadir Overpasses (SNOs) Prediction Service
